Reflectivity
-20 -20 -20 -20 -20 -20 -20 -20 -20 -20 -20 -20 -20 -20 -20 -20 -20 -20 -20 -20 -20 -20 -20 -20 -20 -20 -20 -20 -20 -20 -20 -20 -3 -20 -20 -20 -20 -20 -20 -20 -20 -20 -20 -13
-20 -20 -20 -20 -20 -20 -20 -20 -20 -20 -20 -20 -19 -20 -20 -20 -20 -20 -20 -15 -20 -20 -20 -20 -20 -20 -20 -20 -20 -20 -20 -20 -20 -20 -20 -20 -20 -20 -20 -20 -20 -20 -4 23
-20 -20 -20 -20 -20 -20 -20 -20 -20 -20 -20 -20 -20 -20 -20 -20 -20 -19 -5 -19 -20 -20 -20 -20 -20 -20 -20 -20 -20 -20 -20 -20 -20 -20 -20 -20 -20 -20 -20 -20 -5 8 25 20
-20 -20 -20 -20 -20 -20 -20 -20 -20 -20 -20 2 -20 10 -20 -20 -20 -20 -20 -20 -20 -20 -20 -20 -20 -20 -20 -20 -20 -20 -20 -20 -20 -20 -20 -20 -20 -20 -20 -20 -3 -13 12 12
-20 -20 -20 -20 -20 -20 -20 -20 -20 -20 -20 -20 -20 -20 -0 -20 -20 -20 -20 -20 -20 -20 -20 -20 -20 -20 -20 -20 -20 -20 -20 -20 -20 -20 -20 -20 -20 -20 -20 -3 -18 16 25 22
-20 -20 -20 -20 -20 -20 -20 -20 -20 -20 -20 -20 -20 -20 -20 -20 -20 -20 -20 -20 -20 -20 -20 -20 -20 -20 -20 -20 -20 -20 -20 -20 -20 -20 -20 -20 -20 -20 -15 -14 -19 -20 -12 12
-20 -20 -20 -20 -20 -20 -20 -20 -6 3 -20 -20 -20 -20 -20 -20 -20 -20 -20 -20 -20 -20 -20 -20 -20 -20 -20 -20 -20 -20 -20 -20 -20 -20 -20 -20 -18 -6 7 22 15 -6 -20 -20
-20 -20 -20 -20 -20 -20 -20 -20 -20 -19 -20 -20 -20 -20 -20 -20 -20 -20 -20 -20 -20 -20 -20 -20 -20 -20 -20 -20 -20 -20 -20 -20 -20 -20 -20 -20 -19 10 -3 17 36 16 -14 -20
-20 -20 -20 -20 -20 -20 -20 -20 -20 -20 -20 -20 -20 -20 -20 -20 -20 -20 -20 -20 -20 -20 -20 -20 -20 -20 -20 -20 -20 -20 -20 -20 -20 -20 -20 -18 -1 -13 -19 14 15 -17 -20 -20
-20 -20 -20 -20 -20 -20 -20 -20 -20 -20 -20 -20 -20 -20 -20 -20 -20 -20 -20 -20 -20 -20 -20 -20 -20 -20 -20 -20 -20 -20 -20 -20 -20 -20 -20 -11 11 -3 -6 18 19 -16 3 17
-20 -20 -20 -20 -20 -20 -20 -20 -20 -20 -20 -20 -20 -20 -20 -20 -20 -20 -20 -20 -20 -20 -20 -20 -20 -20 -20 -20 -20 -20 -20 -20 -20 -20 -20 -20 -20 -16 0 1 9 19 33 22
-20 -20 -20 -20 -20 -20 -20 -20 -20 -20 -20 -20 -20 -20 -20 -20 -20 -20 -20 -20 -20 -20 -20 -20 -20 -20 -20 -20 -20 -20 -20 -20 -20 -20 -20 -20 -20 2 -12 4 -18 24 5 -4
-20 -20 -20 -20 -20 -20 -20 -20 -20 -20 -20 -20 -20 -20 -20 -20 -20 -20 -20 -20 -20 -20 -20 -20 -20 -20 -20 -20 -20 -20 -20 -20 -20 -20 -19 11 0 -10 -12 -20 -18 3 28 35
-20 -20 -20 -20 -20 -20 -20 -20 -20 -20 -20 -20 -20 -20 -20 -20 -20 -20 -20 -20 -20 -20 -20 -20 -20 -20 -20 -20 -20 -20 -20 -20 -20 -20 1 10 5 12 0 -15 -8 -1 14 -3
-20 -20 -20 -20 -20 -20 -20 -20 -20 -20 -20 -20 -20 -20 -20 -20 -20 -20 -20 -20 -20 -20 -20 -20 -20 -20 -20 -20 -20 -20 -8 4 9 7 8 12 10 -12 -14 -8 4 9 -6 -20
-20 -20 -20 -20 -20 -20 -20 -20 -20 -20 -20 -20 -20 -20 -20 -20 -20 -20 -20 -20 -20 -20 -20 -20 -20 -20 -20 -20 -20 -20 -19 -3 -17 -19 -20 -18 -20 -20 -20 -20 -20 -10 -20 -20
-20 -20 -20 -20 -20 -20 -20 -20 -20 -20 -20 -20 -20 -20 -20 -20 -20 -20 -20 -20 -20 -20 -20 -20 -20 -20 -20 -20 -20 -20 -20 -20 -20 -20 -20 -20 -20 -20 -20 -20 -20 -20 -20 -20
-20 -20 -20 -20 -20 -20 -15 -20 -20 -20 -20 -20 -20 -20 -20 -20 -20 -20 -20 -20 -20 -20 -20 -20 -20 -20 -20 -20 -20 -20 -20 -20 -20 -20 -20 -20 -20 -20 -20 -20 -20 -16 -19 -6
-20 -20 -20 -20 -20 -20 -19 -20 -20 -20 -20 -20 -20 -20 -20 -20 -20 -20 -20 -20 -20 -20 -20 -20 -20 -20 -20 -20 -20 -20 -20 -20 -20 -20 -20 -20 -20 -20 -20 -20 -20 -20 -19 -16
-20 -20 -20 -20 -20 -20 -13 -20 -20 -20 -20 -20 -20 -20 -20 -20 -20 -20 -20 -20 -20 -20 -20 -20 -20 -20 -20 -20 -20 -20 -20 -20 -20 -20 -20 -20 -20 -20 -20 -20 -20 -20 -20 -20
-20 -20 -20 -20 -20 -20 -20 -20 -20 -20 -17 -20 -20 -20 -20 -20 -20 -20 -20 -20 -20 -20 -20 -20 -20 -20 -20 -20 -20 -20 -20 -20 -20 -20 -20 -20 -20 -20 -20 -20 -20 -20 -20 -20
-20 -20 -20 -20 -20 -20 -11 -15 -20 -20 -20 -20 -20 -20 -20 -20 -20 -20 -20 -20 -20 -20 -20 -20 -20 -20 -20 -20 -20 -20 -20 -20 -20 -20 -20 -20 -20 -20 -20 -20 -20 -20 -20 -20
-20 -20 -20 -20 -20 -20 -20 -20 -20 -20 -20 -20 -20 -20 -20 -20 -20 -20 -20 -20 -20 -20 -20 -20 -20 -20 -20 -20 -20 -20 -20 -20 -20 -20 -20 -20 -20 -20 -20 -20 -20 -20 -20 -20
-20 -20 15 -6 -20 -20 -20 -20 -20 -20 -20 -20 -20 -20 -20 -20 -20 -20 -20 -20 -20 -20 -20 -20 -20 -20 -20 -20 -20 -20 -20 -20 -20 -20 -20 -20 -20 -20 -20 -20 -20 -20 -20 -20
-19 -20 -20 -20 -20 -20 -20 -20 -20 -20 -20 -20 -20 -20 -20 -20 -20 -20 -20 -20 -20 -20 -20 -20 -20 -20 -20 -20 -20 -20 -20 -20 -20 -20 -20 -20 -20 -20 -20 -20 -20 -20 -20 -20
-20 -20 -20 -20 1 -9 -20 -20 -20 -20 -20 -20 -20 -20 -20 -20 -20 -20 -20 -20 -20 -20 -20 -20 -20 -20 -20 -20 -20 -20 -20 -20 -20 -20 -20 -20 -20 -20 -20 -20 -20 -20 -20 -20
Wind_Speed
9 10 10 5 4 6 4 6 5 3 4 6 9 10 6 11 11 14 14 13 15 14 15 15 14 17 18 19 18 18 16 14 10 9 9 9 9 8 8 7 9 9 8 12
7 12 6 3 5 7 8 9 6 4 4 5 6 11 2 9 14 13 13 13 15 15 15 15 17 16 17 19 19 18 17 16 13 9 9 8 9 9 9 8 8 9 10 11
13 3 2 9 9 9 8 9 3 3 2 8 10 12 6 5 10 11 13 14 16 16 17 17 18 19 18 19 19 18 17 16 14 14 10 8 8 6 8 8 6 8 10 12
12 9 7 9 10 10 10 6 6 6 7 7 3 3 5 7 10 14 15 17 16 17 17 18 19 20 20 19 17 18 18 17 15 16 12 13 11 10 9 8 8 9 12 13
11 10 11 13 13 8 6 4 6 8 8 6 7 7 7 5 8 13 16 17 18 17 18 20 20 20 19 18 17 16 17 17 16 16 15 13 13 9 7 6 10 11 9 10
9 3 5 4 3 8 4 7 4 5 4 7 3 7 4 6 4 2 8 16 18 18 18 18 18 18 19 18 18 17 19 18 18 17 18 17 15 13 8 11 10 9 8 10
14 13 5 5 8 7 10 9 7 5 5 4 4 6 8 2 2 6 7 7 10 17 18 18 19 20 19 20 20 18 20 20 19 18 18 18 17 14 13 12 10 12 10 9
15 14 14 11 11 8 15 11 5 5 5 5 4 6 4 2 5 7 6 6 7 11 15 19 19 19 19 20 20 19 19 19 19 18 18 15 16 12 10 11 10 9 8 7
16 13 5 8 4 7 8 9 2 3 2 3 4 4 11 2 4 3 2 2 2 5 11 16 18 17 17 18 19 19 17 17 17 17 15 15 14 15 11 11 9 8 7 6
7 11 5 7 6 4 7 10 6 4 5 5 5 4 5 2 4 3 2 5 5 2 3 7 10 15 15 15 14 15 15 16 15 15 13 11 14 13 10 9 12 12 9 12
11 8 7 6 11 12 7 7 2 1 3 4 3 4 1 1 1 1 1 3 3 3 1 5 7 8 10 11 11 12 12 13 13 13 12 10 11 13 12 10 10 10 9 11
16 8 8 13 4 3 6 9 11 6 6 3 4 7 8 8 6 5 5 4 4 4 1 2 4 6 7 8 9 9 9 10 10 10 10 12 9 9 10 9 8 8 7 9
14 11 9 9 7 5 8 10 11 6 3 11 6 4 6 5 6 7 7 3 4 4 3 3 5 5 6 6 6 7 6 6 6 5 5 4 5 5 5 6 9 8 11 9
18 13 19 12 11 9 12 14 15 13 7 10 11 15 12 13 12 9 7 4 4 4 5 5 6 7 6 6 6 6 5 4 7 8 8 7 7 8 8 9 9 10 11 11
13 17 15 15 13 13 16 15 15 17 17 15 11 12 10 12 11 5 2 2 3 2 2 4 6 6 8 8 8 9 8 8 9 10 9 8 8 9 9 9 8 9 9 10
6 10 12 16 14 13 16 16 17 17 17 11 16 14 12 10 4 6 3 3 4 6 6 6 5 8 9 9 10 10 11 10 10 12 11 10 11 11 11 11 11 12 10 11
6 8 7 12 6 5 7 15 16 15 14 15 15 14 11 9 10 7 4 4 7 9 9 10 9 10 11 11 11 12 12 11 13 13 12 12 12 13 12 12 13 12 11 8
6 12 6 5 4 8 6 2 14 18 16 16 15 13 10 8 5 6 3 8 9 9 10 10 10 11 12 13 13 13 13 13 13 13 14 13 14 14 13 12 11 8 5 5
12 8 5 6 9 10 5 6 9 12 16 18 19 17 8 6 10 7 6 6 9 9 9 9 10 12 12 13 14 15 15 15 15 15 14 14 13 13 11 9 6 3 2 3
7 8 6 4 7 9 7 14 12 6 14 10 12 13 12 13 9 7 13 11 11 10 9 10 11 12 13 13 14 15 15 15 15 14 13 10 10 8 7 5 5 4 1 1
5 4 11 8 6 5 3 8 11 10 14 1 10 10 15 14 2 18 17 13 12 12 13 12 12 12 13 13 14 16 15 14 12 12 10 9 8 7 6 5 4 2 2 3
9 9 5 6 6 11 10 11 11 12 2 7 10 11 15 10 13 16 16 16 15 15 15 14 13 13 13 13 13 14 13 12 11 11 9 8 8 6 5 4 3 3 4 5
6 5 2 8 5 3 19 12 15 4 6 6 10 11 15 16 16 18 17 16 16 16 14 14 15 15 12 12 11 13 11 10 10 10 9 8 7 6 5 5 5 4 5 5
6 3 5 5 9 10 8 13 5 7 6 3 6 13 18 19 19 18 16 16 15 15 15 15 16 15 14 11 12 12 10 9 9 9 8 6 7 5 6 3 4 4 4 5
9 10 12 16 14 5 11 13 15 11 7 7 9 14 18 20 19 19 17 17 16 15 14 14 14 14 14 12 12 10 9 8 8 7 6 6 5 5 4 4 5 4 6 6
8 11 7 8 9 9 12 4 14 15 14 11 14 17 17 19 21 20 17 16 16 17 16 14 15 15 13 12 11 9 8 7 7 6 5 4 4 4 4 4 2 9 3 4
Wind_Direction
198 227 225 236 235 314 252 230 236 102 106 229 243 280 281 187 204 203 195 187 188 187 183 177 186 182 185 189 191 193 192 196 192 189 188 193 195 202 199 207 205 185 193 191
198 228 230 246 239 245 238 220 208 145 140 249 245 274 329 194 210 213 209 202 197 190 183 186 189 194 197 195 199 199 201 198 200 200 198 203 205 207 211 206 200 202 198 192
225 109 200 205 206 225 232 266 192 315 196 241 273 251 201 185 214 210 221 221 211 202 198 194 197 201 201 205 204 208 209 205 203 209 197 197 202 205 208 202 202 207 202 199
230 219 224 228 241 234 237 222 251 239 267 262 286 235 163 190 211 217 214 209 215 209 211 202 197 203 204 206 205 210 210 208 206 203 201 204 204 211 206 206 205 207 204 205
201 192 205 228 238 217 255 171 245 269 277 260 192 256 128 181 227 224 219 217 214 213 209 206 201 201 204 204 205 208 211 213 206 203 212 205 219 222 213 207 214 210 201 199
210 137 204 226 195 228 134 179 213 232 237 234 169 266 199 213 264 306 226 221 222 214 215 217 206 200 202 203 203 203 207 207 208 207 209 213 215 211 188 204 210 202 201 198
195 203 176 202 202 179 206 196 216 198 197 243 126 234 284 336 292 292 289 268 237 223 217 212 210 203 202 202 201 202 206 209 206 205 210 211 212 210 205 211 212 201 199 198
198 197 204 183 231 217 203 218 233 241 202 163 187 239 122 53 298 296 287 279 271 240 217 217 209 208 206 204 199 203 206 210 204 206 212 205 208 209 213 200 211 218 195 187
199 203 138 197 189 230 166 216 355 134 52 257 252 234 243 150 265 256 315 257 208 224 213 218 217 212 210 207 208 207 209 213 210 206 209 205 211 213 208 219 198 203 183 169
195 203 191 144 179 174 277 139 179 217 215 232 166 261 303 59 113 93 53 29 31 79 207 218 223 221 219 215 206 208 213 216 212 207 210 214 216 216 212 198 215 201 187 200
192 223 147 183 205 197 173 196 227 303 286 266 268 273 105 193 133 236 278 317 344 14 206 190 204 207 211 214 204 205 209 215 210 211 206 201 212 213 212 211 207 198 177 185
195 209 201 204 89 281 269 228 205 236 183 232 285 262 220 267 259 250 261 272 285 301 313 183 177 174 180 189 191 196 206 211 212 210 206 210 196 208 211 203 198 182 140 140
174 208 206 195 187 188 212 206 223 238 271 229 232 260 160 183 218 224 253 232 250 281 277 159 155 158 161 166 172 181 184 195 198 187 173 172 157 154 147 113 106 113 122 119
178 202 216 225 227 206 204 215 212 219 225 255 239 283 263 253 257 256 215 201 242 240 235 223 169 144 134 131 130 149 144 116 103 111 111 111 117 122 125 128 135 139 146 143
205 217 215 234 247 248 236 238 221 225 233 250 267 274 259 273 286 261 258 213 170 131 159 199 190 153 139 128 111 93 101 104 112 110 111 112 110 107 111 115 116 119 118 129
189 215 214 224 227 231 241 243 250 233 254 258 260 264 263 269 252 222 218 175 125 92 89 97 121 117 106 106 101 106 107 108 110 104 99 105 105 105 110 114 123 121 111 116
191 193 184 225 212 220 251 237 238 228 225 234 253 263 278 243 223 214 197 160 122 104 97 94 95 97 98 97 102 99 101 104 102 100 107 108 112 108 105 105 102 101 108 130
186 201 195 219 174 227 257 277 231 228 235 232 253 253 253 263 157 160 190 149 129 119 112 106 106 104 102 102 101 103 99 97 99 100 103 106 107 105 108 104 107 123 133 148
218 191 161 169 214 257 220 195 193 197 243 233 243 256 218 167 150 168 158 138 123 116 104 99 101 105 109 109 112 110 108 107 105 109 111 114 115 114 116 121 122 123 176 227
182 247 238 167 218 223 226 216 204 208 255 232 241 250 193 174 208 181 156 144 130 121 116 114 112 111 110 112 114 112 112 114 111 113 113 120 111 111 103 116 156 150 134 306
161 182 210 208 235 248 215 152 158 208 252 257 218 213 182 198 292 128 140 140 133 127 125 125 118 113 114 117 118 113 114 110 110 106 103 101 108 110 99 96 78 51 12 331
180 175 181 204 217 238 147 141 203 226 195 212 200 194 191 148 135 140 142 141 140 135 136 131 124 118 117 120 119 115 112 115 113 109 109 102 89 86 82 73 59 15 352 330
219 211 220 217 221 107 186 216 218 237 247 203 202 178 168 154 154 152 148 147 144 141 138 135 126 119 115 114 113 109 109 112 110 104 99 97 91 81 60 40 23 360 352 346
231 156 189 274 236 231 219 229 244 226 219 198 200 177 164 161 156 152 149 147 147 145 141 132 128 121 114 107 103 104 109 111 109 103 97 90 69 54 44 43 23 14 4 349
237 165 225 247 258 269 246 236 231 209 202 192 184 171 175 159 158 154 152 153 150 143 139 139 130 124 116 109 103 98 103 113 109 101 87 79 64 45 54 56 25 25 53 6
198 216 209 238 251 219 261 279 209 203 205 186 167 167 166 166 157 155 155 152 149 146 141 135 127 121 115 107 100 94 90 96 110 105 90 52 65 56 28 29 95 123 86 355